FW5301 Weather Reports


time (UTC)temp
C
wind
direction
speed
KPH
gust
KPH
rain 1hr
cm
rain 24hr
cm
rain mn
cm
humidity
%
barometer
mb
20260508033038 11 315 0.0 0.0 0.00 1.78 0.15 87 1014.2
20260508031522 11 315 0.0 4.8 0.00 1.78 0.15 87 1014.1
20260508030013 11 1 0.0 1.6 0.00 1.78 0.15 86 1014.0
20260508024621 11 327 0.0 3.2 0.03 1.78 0.15 86 1013.9
20260508023051 11 259 0.0 0.0 0.03 1.78 0.15 86 1013.9
20260508021541 11 144 4.8 11.3 0.05 1.78 0.15 87 1013.8
20260508020031 11 341 0.0 0.0 0.05 1.78 0.15 87 1013.1
20260508014522 11 341 0.0 0.0 0.05 1.75 0.13 87 1013.6
20260508013007 11 341 0.0 0.0 0.08 1.75 0.13 86 1014.0
20260508011605 11 341 0.0 0.0 0.08 1.75 0.10 86 1014.0
20260508010054 11 341 0.0 0.0 0.08 1.73 0.08 86 1014.2
20260508004538 11 341 0.0 0.0 0.08 1.70 0.05 86 1014.2
20260508003028 11 341 0.0 0.0 0.08 1.68 0.05 86 1014.3
20260508001535 11 341 0.0 0.0 0.08 1.65 0.00 86 1014.3
20260508000007 11 341 0.0 0.0 0.13 1.65 1.65 86 1014.3
20260507234558 11 341 0.0 0.0 0.18 1.63 1.63 85 1014.3
20260507233038 11 341 0.0 0.0 0.41 1.60 1.60 85 1014.2
20260507231527 12 341 0.0 1.6 1.24 1.55 1.55 85 1014.2
20260507230026 12 344 0.0 4.8 1.42 1.50 1.50 85 1014.4
20260507224507 12 338 0.0 6.4 1.37 1.42 1.42 84 1014.4
20260507223058 12 335 0.0 6.4 1.17 1.19 1.19 83 1014.5
20260507221537 12 359 0.0 3.2 0.25 0.30 0.30 81 1014.4
20260507220026 13 276 0.0 0.0 0.05 0.08 0.08 79 1014.2
20260507214517 13 276 0.0 1.6 0.03 0.05 0.05 78 1014.1
20260507213006 13 264 0.0 3.2 0.03 0.05 0.05 81 1014.0
20260507211557 13 77 0.0 1.6 0.03 0.05 0.05 84 1013.8
20260507210046 13 77 0.0 4.8 0.03 0.05 0.05 84 1013.7
20260507204536 13 20 0.0 4.8 0.00 0.03 0.03 84 1013.8
20260507203026 13 34 0.0 1.6 0.00 0.03 0.03 83 1013.8
20260507201524 13 138 1.6 4.8 0.00 0.03 0.03 82 1013.8
20260507200012 13 55 0.0 3.2 0.00 0.03 0.03 80 1013.6
20260507194613 13 68 0.0 6.4 0.03 0.03 0.03 77 1013.7
20260507193051 13 79 0.0 1.6 0.03 0.03 0.03 75 1013.6
20260507191542 13 79 0.0 3.2 0.03 0.03 0.03 74 1013.5
20260507190016 13 79 0.0 6.4 0.03 0.03 0.03 73 1013.4
20260507184502 13 67 1.6 6.4 0.00 0.00 0.00 72 1013.1
20260507183104 13 19 0.0 0.0 0.00 0.00 0.00 71 1013.0
20260507181546 14 86 1.6 6.4 0.00 0.00 0.00 70 1012.9
20260507180040 14 31 0.0 4.8 0.00 0.00 0.00 70 1013.0
20260507174523 14 26 0.0 0.0 0.00 0.00 0.00 70 1012.8
20260507173013 15 26 0.0 0.0 0.00 0.00 0.00 69 1013.0
20260507171559 15 26 0.0 4.8 0.00 0.00 0.00 69 1012.8
20260507170053 15 50 1.6 4.8 0.00 0.00 0.00 68 1012.6
20260507164538 16 61 1.6 6.4 0.00 0.00 0.00 62 1012.7
20260507163028 16 288 0.0 6.4 0.00 0.00 0.00 61 1012.7
20260507161518 17 243 1.6 8.0 0.00 0.00 0.00 60 1012.6
20260507160006 17 229 4.8 12.9 0.00 0.00 0.00 60 1012.6
20260507154556 17 104 4.8 11.3 0.00 0.00 0.00 61 1012.7
20260507153051 16 288 3.2 9.7 0.00 0.00 0.00 61 1012.9
20260507151533 16 98 4.8 9.7 0.00 0.00 0.00 61 1013.1
20260507150023 15 53 3.2 11.3 0.00 0.00 0.00 61 1012.9
20260507144510 15 216 3.2 9.7 0.00 0.00 0.00 62 1012.9
20260507143108 15 297 1.6 6.4 0.00 0.00 0.00 62 1013.1
20260507141550 15 50 1.6 6.4 0.00 0.00 0.00 61 1013.2
20260507140039 15 278 1.6 16.1 0.00 0.00 0.00 60 1013.3
20260507134526 15 319 0.0 17.7 0.00 0.00 0.00 59 1012.9
20260507133015 16 177 4.8 20.9 0.00 0.00 0.00 59 1012.6
20260507131507 16 263 8.0 19.3 0.00 0.00 0.00 58 1012.9
20260507130104 16 166 6.4 19.3 0.00 0.00 0.00 57 1012.9
20260507124533 17 222 11.3 27.4 0.00 0.00 0.00 50 1013.0
20260507123025 18 199 11.3 25.7 0.00 0.00 0.00 46 1012.9
20260507121514 19 281 8.0 19.3 0.00 0.00 0.00 47 1012.8
20260507120004 19 228 1.6 16.1 0.00 0.00 0.00 51 1012.9
20260507114547 18 337 3.2 17.7 0.00 0.00 0.00 52 1013.1
20260507113037 18 305 0.0 4.8 0.00 0.00 0.00 54 1013.1
20260507111527 18 296 3.2 11.3 0.00 0.00 0.00 52 1013.2
20260507110016 18 304 0.0 16.1 0.00 0.00 0.00 52 1013.2
20260507104506 18 70 1.6 16.1 0.00 0.00 0.00 50 1013.1
20260507103129 18 45 6.4 20.9 0.00 0.00 0.00 51 1013.1
20260507101548 18 112 1.6 12.9 0.00 0.00 0.00 51 1013.1
20260507100044 18 275 3.2 12.9 0.00 0.00 0.00 52 1013.2
20260507094531 18 229 6.4 19.3 0.00 0.00 0.00 52 1013.1
20260507093017 18 257 4.8 17.7 0.00 0.00 0.00 51 1013.0
20260507091504 19 285 3.2 14.5 0.00 0.00 0.00 51 1012.9
20260507090100 20 347 4.8 14.5 0.00 0.00 0.00 48 1012.7
20260507084548 19 88 8.0 19.3 0.00 0.00 0.00 48 1012.5
20260507083025 20 233 3.2 16.1 0.00 0.00 0.00 48 1012.4
20260507081515 19 94 6.4 11.3 0.00 0.00 0.00 50 1012.2
20260507080056 18 108 3.2 12.9 0.00 0.00 0.00 50 1012.3
20260507074545 18 286 3.2 11.3 0.00 0.00 0.00 52 1012.2
20260507073039 17 192 6.4 17.7 0.00 0.00 0.00 53 1012.1
20260507071525 17 319 1.6 12.9 0.00 0.00 0.00 55 1012.0
20260507070014 17 67 1.6 6.4 0.00 0.00 0.00 58 1011.8
20260507064503 16 45 1.6 8.0 0.00 0.00 0.00 58 1011.7
20260507063057 16 39 1.6 8.0 0.00 0.00 0.00 58 1011.6
20260507061544 16 69 3.2 6.4 0.00 0.00 0.00 58 1011.3
20260507060034 16 68 3.2 8.0 0.00 0.00 0.00 58 1011.4
20260507054523 16 114 6.4 11.3 0.00 0.00 0.00 56 1011.7
20260507053013 15 50 1.6 8.0 0.00 0.00 0.00 58 1011.8
20260507051503 14 56 0.0 4.8 0.00 0.00 0.00 62 1011.5
20260507050057 14 57 1.6 6.4 0.00 0.00 0.00 58 1011.5
20260507044546 15 59 0.0 8.0 0.00 0.00 0.00 58 1011.8
20260507043029 15 12 0.0 1.6 0.00 0.00 0.00 57 1011.8
20260507041518 15 34 0.0 1.6 0.00 0.00 0.00 55 1011.7
20260507040008 15 34 0.0 12.9 0.00 0.00 0.00 55 1011.8
20260507034609 14 18 0.0 6.4 0.00 0.00 0.00 55 1011.6